Location: Olomouc
(49.5830°N, 17.2500°E)
Time: 20:46:39
(UTC+02:00)

ISS - Pass Details

Date: 10 May 2021
Orbit: 417 x 422 km, 51.6° (Epoch: 14 June)

Event Time Altitude Azimuth Distance (km) Brightness Sun altitude
Rises 04:22:27 0° 287° (WNW) 2,375 -0.3 -7.7°
Reaches altitude 10° 04:24:33 10° 288° (WNW) 1,510 -1.3 -7.5°
Maximum altitude 04:27:57 86° 16° (NNE) 428 -3.7 -7.0°
Drops below altitude 10° 04:31:21 10° 107° (ESE) 1,507 -0.4 -6.6°
Sets 04:33:27 0° 108° (ESE) 2,371 0.6 -6.3°
